SES-3

Last updated on Sun Aug 31 2025 00:02:47 GMT+0000 (Coordinated Universal Time)

1 37748U 11035A 25241.93487237 -.00000099 00000+0 00000+0 0 9993 2 37748 0.5679 86.1858 0002170 45.1107 80.6446 1.00275176 51678
UTC large
Height (km)
Speed (km/s)
/
Latitude / Longitude
Inclination (degrees)
Orbital Period (minutes)
Azimuth
Elevation
Range (km)
Doppler Factor

Next 0 passes for location: London (51.5072 / 0.1276)

Sorry there are no passes over London.